Regional Weather Roundup
Issued by NWS Lake Charles, LA

Home | Current Version | Previous Version | Text Only | Print | Product List | Glossary On
Versions: 1 2 3 4 5 6 7 8 9 10 11 12 13 14 15 16 17 18 19 20 21 22 23 24 25 26 27 28 29 30 31 32 33 34 35 36 37 38 39 40 41 42 43 44 45 46 47 48 49 50
000
ASUS44 KLCH 050710
RWRLCH
REGIONAL WEATHER ROUNDUP
NATIONAL WEATHER SERVICE LAKE CHARLES LA
200 AM CDT THU MAY 05 2016

Note: "fair" indicates few or no clouds below 12,000 feet with no
significant weather and/or obstructions to visibility.


ACROSS SOUTHEAST TEXAS

CITY           SKY/WX    TMP DP  RH WIND       PRES   REMARKS
BEAUMONT       CLEAR     62  58  86 W6        29.94F
BEAUMONT CITY  FAIR      64  57  80 NW3       29.96S
ORANGE         SUNNY     59  56  89 CALM      29.96S
JASPER         CLEAR     56  55  95 CALM      29.97S
$$

ACROSS CENTRAL LOUISIANA

CITY           SKY/WX    TMP DP  RH WIND       PRES   REMARKS
LEESVILLE      CLEAR     62  56  83 NW5       29.92F
FULLERTON      FAIR      61  56  83 CALM      29.91S
ALEXANDRIA INT CLEAR     60  56  86 NW5       29.90S
ESLER FIELD    CLEAR     60  55  83 W5        29.91R
DERIDDER       FAIR      61  57  86 CALM      29.95F
OAKDALE        SUNNY     56  55  98 CALM      29.92F
OPELOUSAS      FAIR     N/A N/A N/A W7        29.91F
$$

ACROSS SOUTHWEST AND SOUTH CENTRAL LOUISIANA

CITY           SKY/WX    TMP DP  RH WIND       PRES   REMARKS
SULPHUR        SUNNY     64  57  76 NW3       29.94F
LAKE CHARLES   PTCLDY    64  56  75 NW3       29.93F
CHENNAULT INT  CLEAR     64  56  75 NW5       29.93S
CAMERON PHI    SUNNY     68  63  83 NW6       29.97S
DEQUINCY       FAIR      58  58 100 CALM      29.94S
JENNINGS       FAIR      63  57  82 CALM      29.92F
LAFAYETTE      CLEAR     67  57  70 W7        29.91F
NEW IBERIA     PTCLDY    63  57  81 W5        29.91F
ABBEVILLE      NOT AVBL
PATTERSON      NOT AVBL
SALT POINT       N/A     71  65  81 VRB5      29.90F
$$

SELECTED SITES ACROSS THE REGION

CITY           SKY/WX    TMP DP  RH WIND       PRES   REMARKS
HOUSTON BUSH   CLEAR     62  56  80 W6        29.98S
HOUSTON HOBBY  CLEAR     68  57  68 W7        29.97F
GALVESTON      CLEAR     69  61  75 W7        29.98S
COLLEGE STAT   CLEAR     61  55  81 W5        30.00S
CONROE         CLEAR     56  54  93 CALM      29.98F
HUNTSVILLE     CLEAR     63  54  72 CALM      29.98S
LUFKIN         CLEAR     58  55  90 CALM      29.95F
SHREVEPORT     CLEAR     63  54  72 NW6       29.95R
MONROE         CLEAR     62  54  74 N7        29.92S
NATCHEZ MS     CLEAR     64  52  63 N3        29.88S
BATON ROUGE    CLEAR     62  55  77 W6        29.89F
N.O. INTL ARPT CLEAR     65  55  70 W8        29.88F
SLIDELL        CLEAR     61  55  81 CALM      29.86F
$$

MARINE REPORTS

STATION/POSITION TIME  SKY/WX   TEMP    WIND        PRES    VSBY
                                AIR SEA DIR/SP/G
                 (UTC)          (F)     (DEG/KT/KT) (MB)    (MI)
BUOY 30 S HIGH I 0650            76 75  270/  8/ 10 1014.2F
WVE H/P(F/S)=  1/ 3

SEA RIM ST PARK  0700            68     290/  6/  7 1014.8F
PORT ARTHUR      0600               75  280/  4/  6 1014.4F
SABINE PASS N    0600            71 76  260/  5/  9 1015.7F
TEXAS POINT      NOT AVBL
CALCASIEU PASS   0600            71 75  310/  6/  7 1013.1F
LK CHARLES BEACH 0600            72 75              1014.1F
MARSH ISLAND     0600            75      30/ 12/ 15   N/A
FRESH WATER LOCK 0600            69 76  260/  5/  6 1014.2F
AMERADA PASS     0600            72 72  260/  4/  8 1013.0F
$$



USA.gov is the U.S. government's official web portal to all federal, state and local government web resources and services.